Regional Weather Roundup
Issued by NWS Albany, NY

Home | Current Version | Previous Version | Text Only | Print | Product List | Glossary On
Versions: 1 2 3 4 5 6 7 8 9 10 11 12 13 14 15 16 17 18 19 20 21 22 23 24 25 26 27 28 29 30 31 32 33 34 35 36 37 38 39 40 41 42 43 44 45 46 47 48 49 50
000
ASUS41 KALY 302210
RWRALY

NEW YORK STATE HOURLY WEATHER ROUNDUP
NATIONAL WEATHER SERVICE ALBANY NY
600 PM EDT MON MAR 30 2015

NOTE: "FAIR" INDICATES FEW OR NO CLOUDS BELOW 12,000 FEET WITH NO
SIGNIFICANT WEATHER AND/OR NO OBSTRUCTIONS TO VISIBILITY.

NYZ032-033-038>043-046>054-057>066-NYZ062>081-302300-
EAST


CITY           SKY/WX    TMP DP  RH WIND       PRES   REMARKS
ALBANY         PTSUNNY   43  28  55 W18G24    29.74R
GLENS FALLS    CLOUDY    44  25  47 W14G24    29.69R
POUGHKEEPSIE   CLOUDY    50  25  37 W14G22    29.75R
NEWBURGH       PTSUNNY   46  28  49 W17G29    29.76R
MONTGOMERY     CLOUDY    48  25  40 NW10      29.75R
WHITE PLAINS   PTSUNNY   48  26  42 W9        29.76R
ISLIP          PTSUNNY   50  27  40 W17G25    29.76R
NEW YORK CITY  CLOUDY    51  25  36 NW18G29   29.78R
CENTRAL PARK   CLOUDY    51  24  34 MISG      29.80S
$$

NYZ005>009-017-018-044>046-055-056-302300-
CENTRAL


CITY           SKY/WX    TMP DP  RH WIND       PRES   REMARKS
FULTON         MOSUNNY   40  29  64 W23       29.76R WCI  30
SYRACUSE       PTSUNNY   40  31  70 W15       29.77R WCI  32
ROME           CLOUDY    40  25  55 W12       29.75F WCI  33
ELMIRA         LGT RAIN  41  31  67 NW16G29   29.80R
BINGHAMTON     CLOUDY    40  23  50 W8        29.74R WCI  34
MONTICELLO     MOSUNNY   39  25  56 W8        29.76R WCI  34
$$

NYZ026>034-041>043-302300-
NORTH


CITY           SKY/WX    TMP DP  RH WIND       PRES   REMARKS
WATERTOWN      PTSUNNY   39  31  72 SW18G24   29.71R WCI  30
FORT DRUM      NOT AVBL
MASSENA        LGT RAIN  39  32  76 W28G38    29.65R WCI  28
SARANAC LAKE   FLURRIES  34  26  72 SW14G26   29.57R WCI  25
PLATTSBURGH    PTSUNNY   41  27  57 VRB6G20   29.60R
$$

NYZ001>004-010>016-019>021-302300-
WEST


CITY           SKY/WX    TMP DP  RH WIND       PRES   REMARKS
NIAGARA FALLS  PTSUNNY   39  33  79 W16       29.82R WCI  30
BUFFALO        PTSUNNY   37  32  82 SW16G23   29.82R WCI  28
DUNKIRK        CLOUDY    38  32  79 W12G20    29.87R WCI  30
JAMESTOWN      CLOUDY    39  25  56 W15G24    29.83R WCI  31
WELLSVILLE     FLURRIES  35  31  85 W13G22    29.79S WCI  26
ROCHESTER      PTSUNNY   38  34  85 W14       29.79S WCI  30
PENN YAN       LGT SNOW  35  33  92 W7        29.80R FOG     WCI  29
$$

             KEY
       WCI = WIND CHILL INDEX
       VSB = VISIBILITY
       HX  = HEAT INDEX
$$



USA.gov is the U.S. government's official web portal to all federal, state and local government web resources and services.